Regional Weather Roundup
Issued by NWS Newport/Morehead, NC

Current Version | Previous Version | Graphics & Text | Print | Product List | Glossary On
Versions: 1 2 3 4 5 6 7 8 9 10 11 12 13 14 15 16 17 18 19 20 21 22 23 24 25 26 27 28 29 30 31 32 33 34 35 36 37 38 39 40 41 42 43 44 45 46 47 48 49 50
000 ASUS42 KMHX 050225 RWRMHX WEATHER ROUNDUP FOR EASTERN NORTH CAROLINA NATIONAL WEATHER SERVICE NEWPORT/MOREHEAD CITY NC 1000 PM EDT TUE AUG 04 2015 NOTE: "FAIR" INDICATES FEW OR NO CLOUDS BELOW 12,000 FEET WITH NO SIGNIFICANT WEATHER AND/OR OBSTRUCTIONS TO VISIBILITY NCZ015>017-031-032-045>047-102-103-050300- NORTH COAST CITY SKY/WX TMP DP RH WIND PRES REMARKS EDENTON N/A 79 73 83 S8 29.96S ELIZABETH CITY MOCLDY 79 75 87 S10 29.96R KITTY HAWK MOCLDY 80 75 85 S6 29.96R MANTEO MOCLDY 80 76 87 S17 29.98R $$ NCZ045>047-081-094-103-104-050300- CENTRAL COAST CITY SKY/WX TMP DP RH WIND PRES REMARKS FRISCO LGT RAIN 76 74 93 S14G26 29.99S SWANQUARTER N/A 81 N/A N/A S13 29.91F $$ NCZ095-097-098-100-101-050300- SOUTHERN COAST CITY SKY/WX TMP DP RH WIND PRES REMARKS BEAUFORT CLOUDY 80 78 94 SW20 29.96R CEDAR ISLAND N/A 79 N/A N/A S5G15 30.00S JACKSONVILLE MOCLDY 78 75 90 CALM 29.95R PINEY ISLAND MOCLDY N/A N/A N/A SW12 29.95S WILMINGTON MOCLDY 79 77 94 SW5 29.96R $$ NCZ011>013-027>030-043-044-078>080-089-090>093-098-050300- COASTAL PLAIN CITY SKY/WX TMP DP RH WIND PRES REMARKS AHOSKIE CLEAR N/A N/A N/A S3 29.95R CLINTON CLEAR 76 74 93 CALM 29.96S ELIZABETHTOWN CLEAR 78 75 90 CALM 29.97R GOLDSBORO CLEAR 78 73 85 SE3 29.94R GREENVILLE CLEAR 79 73 83 S6 29.98R HAVELOCK CLOUDY 78 76 93 SW8 29.97R KENANSVILLE CLEAR 73 72 94 CALM 29.97R KINSTON CLEAR 76 73 87 CALM 29.97R NEW BERN MOCLDY 78 74 87 S5 29.96S RICHLANDS PTCLDY 75 70 83 CALM 29.96R ROCKY MOUNT CLEAR 80 72 76 S3 29.95R WASHINGTON MOCLDY 77 73 87 SE3 29.95F WHITEVILLE CLEAR 76 74 95 CALM 29.96R $$ AMZ130-135-150-152-154-156-158-170-250-252-270-ANZ085-086-088-633-658-670-050300- MARINE OBSERVATIONS STATION/POSITION TIME TEMP WIND PRES WAVE SWELL AIR SEA DIR/SP/G HT/PER HT/PER (UTC) (F) (DEG/KT/KT) (MB) (FT/S) (FT/S) CHESAPEAKE LIGHT 0200 78 190/ 23/ 26 1013.8 64 E VA BEACH 0150 81 81 200/ 21/ 27 1014.1 4/ 6 2/12 DUCK 0200 79 62 190/ 13/ 20 1013.8 2 E DUCK 0111 64 N/A 2/ 5 OREGON INLET 0200 80 82 170/ 17/ 20 1014.8 13E OREGON INLT 0200 80 N/A 5/ 5 HATTERAS CG 0200 76 79 170/ 14/ 22 1014.8 DIAMOND BUOY 0150 81 84 170/ 14/ 17 1015.5 5/ 7 2/ 8 CAPE LOOKOUT 0200 81 210/ 16/ 19 1014.0 BEAUFORT LAB 0200 81 80 210/ 11/ 15 1013.7 30 SE NEW RVR IN NOT AVBL 27 SE WRIGHTSVLE 0200 79 82 240/ 19/ 23 N/A 5 SE WRIGHTSVLE 0108 81 81 240/ 14/ 17 1013.8 225 S CAPE HAT 0150 82 81 210/ 16/ 17 1019.0 6/ 7 2/11 41 SE CHARLESTON 0150 82 83 210/ 14/ 17 1014.9 4/ 6 2/11 $$

USA.gov is the U.S. government's official web portal to all federal, state and local government web resources and services.